Flag for Sweden Weather past 2 weeks in Halmstad, Sweden

Now
57 °F

Sunny.


Feels Like: 57 °F
Forecast: 44 / 63 °F
Wind: 5 mph from Northwest

Location: Halmstad Swedish Air Force Base

Current Time: Oct 2, 2014 at 7:08:27 PM

Latest Report: Oct 2, 2014 at 6:20 PM


Visibility: 10 mi

Pressure: 30.36 "Hg

Humidity: 88%

Dew point: 54 °F

Location of HalmstadLocation

Historic Weather in Halmstad — Graph

°F

Halmstad temperature yesterday

Maximum temperature yesterday: 57 °F (at 11:20 AM)
Minimum temperature yesterday: 50 °F (at 4:50 AM)
Average temperature yesterday: 53 °F

Past Weeks' High & Low Weather Summary

 TemperatureHumidityPressure
High72 °F (Sep 19, 3:50 PM)94% (Sep 19, 4:20 AM)30.36 "Hg (Sep 19, 4:20 AM)
Low34 °F (Sep 23, 6:50 AM)35% (Sep 23, 3:50 PM)29.59 "Hg (Sep 24, 11:20 PM)
Average55 °F79%30.02 "Hg
* Reported Sep 17 5:20 PM — Oct 2 5:50 PM, Halmstad, Weather by CustomWeather, © 2014

Note: Actual official high and low records may vary slightly from our data, if they occured in-between our weather recording intervals... More about our weather records

Advertising

Halmstad weather history for previous 24 hours

 ConditionsComfort  
Time TempWeatherWind HumidityBarometerVisibility
5:50 PM
Oct 2
57 °FPartly sunny.5 mph88%30.36 "HgN/A
5:20 PM57 °FPartly sunny.6 mph94%30.36 "HgN/A
4:50 PM57 °FFog.5 mph94%30.36 "Hg3 mi
4:20 PM59 °FFog.8 mph88%30.36 "Hg1 mi
3:50 PM59 °FFog.6 mph94%30.33 "Hg1 mi
3:20 PM59 °FFog.6 mph94%30.33 "Hg1 mi
2:50 PM59 °FFog.5 mph94%30.33 "Hg1 mi
2:20 PM59 °FFog.6 mph94%30.33 "Hg1 mi
1:50 PM59 °FDrizzle. Low clouds.6 mph88%30.33 "Hg1 mi
1:20 PM57 °FFog.6 mph94%30.33 "Hg1 mi
12:50 PM57 °FFog.6 mph94%30.33 "Hg1 mi
12:20 PM57 °FRain. Fog.6 mph94%30.33 "Hg1 mi
11:50 AM57 °FRain. Fog.6 mph94%30.33 "Hg1 mi
11:20 AM57 °FDrizzle. Partly sunny.7 mph94%30.33 "Hg1 mi
10:50 AM57 °FDrizzle. Partly sunny.6 mph94%30.33 "Hg1 mi
10:20 AM57 °FDrizzle. Partly sunny.5 mph94%30.33 "Hg1 mi
9:50 AM57 °FDrizzle. Low clouds.5 mph94%30.33 "Hg1 mi
9:20 AM57 °FFog.6 mph88%30.33 "Hg1 mi
8:50 AM57 °FFog.6 mph88%30.33 "Hg2 mi
8:20 AM55 °FFog.5 mph94%30.30 "Hg2 mi
7:50 AM55 °FFog.6 mph94%30.30 "Hg2 mi
7:20 AM55 °FFog.5 mph94%30.30 "Hg2 mi
6:50 AM55 °FFog.6 mph94%30.30 "Hg1 mi
6:20 AM55 °FFog.7 mph94%30.30 "Hg1 mi
5:50 AM55 °FFog.5 mph94%30.30 "Hg1 mi
5:20 AM55 °FFog.6 mph94%30.30 "Hg1 mi
4:50 AM55 °FFog.6 mph94%30.30 "Hg2 mi
4:20 AM55 °FFog.5 mph94%30.30 "Hg2 mi
3:50 AM55 °FFog.3 mph94%30.30 "Hg2 mi
3:20 AM55 °FDrizzle. Low clouds.5 mph88%30.30 "Hg3 mi
2:50 AM55 °FFog.5 mph88%30.30 "Hg3 mi
2:20 AM55 °FFog.6 mph88%30.30 "Hg4 mi
1:50 AM54 °FFog.6 mph94%30.30 "Hg5 mi
1:20 AM54 °FFog.7 mph94%30.30 "Hg6 mi
12:50 AM54 °FLow clouds.7 mph88%30.30 "HgN/A
12:20 AM54 °FLow clouds.5 mph88%30.30 "HgN/A
11:50 PM
Oct 1
54 °FLow clouds.8 mph88%30.30 "HgN/A
11:20 PM54 °FLow clouds.8 mph88%30.30 "HgN/A
10:50 PM54 °FLow clouds.7 mph88%30.30 "HgN/A
10:20 PM54 °FLow clouds.6 mph88%30.30 "HgN/A
9:50 PM54 °FLow clouds.6 mph88%30.30 "HgN/A
9:20 PM54 °FPassing clouds.6 mph88%30.30 "HgN/A
8:50 PM52 °FPassing clouds.6 mph94%30.30 "HgN/A
8:20 PM52 °FPassing clouds.5 mph94%30.30 "HgN/A
7:50 PM52 °FPassing clouds.7 mph94%30.30 "HgN/A
7:20 PM54 °FPartly sunny.7 mph88%30.30 "HgN/A
Weather by CustomWeather, © 2014

See weather overviewHow to use our weather pages